| time (UTC) | temp F | wind direction | speed knots | gust knots | rain 1hr in | rain 24hr in | rain mn in | humidity % | barometer mb |
| 20260509065804 | 64 | 28 | 0.9 | 4.3 | 0.00 | 0.00 | 0.00 | 86 | 1010.6 |
| 20260509065306 | 65 | 25 | 1.7 | 4.3 | 0.00 | 0.00 | 0.00 | 86 | 1010.7 |
| 20260509064805 | 64 | 31 | 1.7 | 5.2 | 0.00 | 0.00 | 0.00 | 86 | 1010.7 |
| 20260509064304 | 64 | 87 | 2.6 | 5.2 | 0.00 | 0.00 | 0.00 | 86 | 1010.8 |
| 20260509063804 | 64 | 67 | 1.7 | 2.6 | 0.00 | 0.00 | 0.00 | 86 | 1010.8 |
| 20260509063304 | 64 | 63 | 1.7 | 6.1 | 0.00 | 0.00 | 0.00 | 87 | 1010.0 |
| 20260509062804 | 64 | 37 | 3.5 | 8.7 | 0.00 | 0.00 | 0.00 | 87 | 1009.7 |
| 20260509062306 | 64 | 30 | 2.6 | 7.8 | 0.00 | 0.00 | 0.00 | 87 | 1009.2 |
| 20260509061804 | 64 | 9 | 2.6 | 8.7 | 0.00 | 0.00 | 0.00 | 88 | 1009.0 |
| 20260509061304 | 63 | 19 | 3.5 | 7.0 | 0.00 | 0.00 | 0.00 | 88 | 1009.1 |
| 20260509060804 | 63 | 345 | 1.7 | 5.2 | 0.00 | 0.00 | 0.00 | 87 | 1009.2 |
| 20260509060305 | 62 | 286 | 0.9 | 2.6 | 0.00 | 0.00 | 0.00 | 87 | 1009.2 |
| 20260509055306 | 62 | 280 | 0.0 | 1.7 | 0.00 | 0.00 | 0.00 | 87 | 1009.5 |
| 20260509054804 | 62 | 280 | 0.9 | 2.6 | 0.00 | 0.00 | 0.00 | 87 | 1009.8 |
| 20260509054304 | 62 | 284 | 1.7 | 5.2 | 0.00 | 0.00 | 0.00 | 87 | 1009.8 |
| 20260509053804 | 62 | 335 | 1.7 | 2.6 | 0.00 | 0.00 | 0.00 | 87 | 1010.0 |
| 20260509053304 | 62 | 35 | 1.7 | 2.6 | 0.00 | 0.00 | 0.00 | 87 | 1009.9 |
| 20260509052307 | 62 | 84 | 0.9 | 2.6 | 0.00 | 0.00 | 0.00 | 86 | 1010.4 |
| 20260509051804 | 62 | 84 | 0.0 | 0.9 | 0.00 | 0.00 | 0.00 | 86 | 1010.3 |
| 20260509050804 | 63 | 84 | 0.0 | 1.7 | 0.00 | 0.00 | 0.00 | 85 | 1010.3 |
| 20260509050304 | 63 | 84 | 1.7 | 2.6 | 0.00 | 0.00 | 0.00 | 84 | 1010.2 |
| 20260509045804 | 64 | 84 | 0.0 | 1.7 | 0.00 | 0.00 | 0.00 | 85 | 1009.9 |
| 20260509045306 | 64 | 84 | 1.7 | 2.6 | 0.00 | 0.00 | 0.00 | 85 | 1009.6 |
| 20260509044804 | 64 | 84 | 0.0 | 0.9 | 0.00 | 0.00 | 0.00 | 84 | 1009.8 |
| 20260509044304 | 64 | 84 | 0.0 | 0.9 | 0.00 | 0.00 | 0.00 | 84 | 1009.7 |
| 20260509043804 | 64 | 84 | 0.9 | 1.7 | 0.00 | 0.00 | 0.00 | 84 | 1009.6 |
| 20260509043304 | 64 | 84 | 0.9 | 2.6 | 0.00 | 0.00 | 0.00 | 84 | 1009.6 |
| 20260509042307 | 64 | 84 | 0.9 | 1.7 | 0.00 | 0.00 | 0.00 | 84 | 1009.6 |
| 20260509041804 | 64 | 85 | 0.0 | 1.7 | 0.00 | 0.00 | 0.00 | 84 | 1009.6 |
| 20260509041304 | 64 | 86 | 0.9 | 2.6 | 0.00 | 0.00 | 0.00 | 84 | 1009.6 |
| 20260509040804 | 64 | 85 | 0.9 | 1.7 | 0.00 | 0.00 | 0.00 | 84 | 1009.8 |
| 20260509040304 | 64 | 86 | 0.9 | 2.6 | 0.00 | 0.00 | 0.00 | 84 | 1009.8 |
| 20260509035804 | 64 | 84 | 0.9 | 1.7 | 0.00 | 0.00 | 0.00 | 85 | 1010.0 |
| 20260509034304 | 64 | 84 | 0.9 | 2.6 | 0.00 | 0.00 | 0.00 | 85 | 1010.0 |
| 20260509033805 | 64 | 84 | 0.0 | 1.7 | 0.00 | 0.00 | 0.00 | 85 | 1010.0 |
| 20260509033304 | 64 | 84 | 0.9 | 2.6 | 0.00 | 0.00 | 0.00 | 85 | 1009.9 |
| 20260509032805 | 64 | 86 | 0.0 | 1.7 | 0.00 | 0.00 | 0.00 | 85 | 1010.1 |
| 20260509032306 | 64 | 85 | 0.0 | 0.0 | 0.00 | 0.00 | 0.00 | 85 | 1010.1 |
| 20260509031803 | 64 | 85 | 0.0 | 0.0 | 0.00 | 0.00 | 0.00 | 85 | 1010.1 |
| 20260509031304 | 64 | 86 | 0.0 | 1.7 | 0.00 | 0.00 | 0.00 | 85 | 1010.1 |
| 20260509030304 | 64 | 10 | 0.9 | 2.6 | 0.00 | 0.00 | 0.00 | 85 | 1010.2 |
| 20260509025804 | 64 | 86 | 0.0 | 1.7 | 0.00 | 0.00 | 0.00 | 85 | 1010.2 |
| 20260509025306 | 64 | 81 | 1.7 | 2.6 | 0.00 | 0.00 | 0.00 | 85 | 1010.3 |
| 20260509024804 | 64 | 84 | 1.7 | 2.6 | 0.00 | 0.00 | 0.00 | 85 | 1010.2 |
| 20260509024304 | 64 | 84 | 0.9 | 2.6 | 0.00 | 0.00 | 0.00 | 85 | 1010.3 |
| 20260509023304 | 64 | 82 | 1.7 | 2.6 | 0.00 | 0.00 | 0.00 | 85 | 1010.3 |
| 20260509022804 | 64 | 82 | 0.9 | 2.6 | 0.00 | 0.00 | 0.00 | 85 | 1010.3 |
| 20260509022306 | 64 | 74 | 0.9 | 2.6 | 0.00 | 0.00 | 0.00 | 85 | 1010.3 |
| 20260509021804 | 64 | 75 | 1.7 | 2.6 | 0.00 | 0.00 | 0.00 | 85 | 1010.4 |
| 20260509021304 | 64 | 83 | 2.6 | 4.3 | 0.00 | 0.00 | 0.00 | 85 | 1010.5 |
| 20260509020804 | 64 | 79 | 0.9 | 2.6 | 0.00 | 0.00 | 0.00 | 85 | 1010.4 |
| 20260509015804 | 65 | 62 | 0.0 | 1.7 | 0.00 | 0.00 | 0.00 | 84 | 1010.5 |
| 20260509015306 | 65 | 63 | 0.0 | 1.7 | 0.00 | 0.00 | 0.00 | 84 | 1010.6 |
| 20260509014804 | 65 | 63 | 0.0 | 2.6 | 0.00 | 0.00 | 0.00 | 84 | 1010.7 |
| 20260509014304 | 65 | 63 | 1.7 | 2.6 | 0.00 | 0.00 | 0.00 | 83 | 1010.7 |
| 20260509013805 | 65 | 62 | 0.0 | 2.6 | 0.00 | 0.00 | 0.00 | 83 | 1010.8 |
| 20260509013304 | 65 | 63 | 0.0 | 1.7 | 0.00 | 0.00 | 0.00 | 83 | 1010.9 |
| 20260509012804 | 65 | 63 | 0.9 | 2.6 | 0.00 | 0.00 | 0.00 | 83 | 1010.9 |
| 20260509011804 | 64 | 63 | 0.9 | 2.6 | 0.00 | 0.00 | 0.00 | 82 | 1011.1 |
| 20260509011304 | 64 | 63 | 1.7 | 2.6 | 0.00 | 0.00 | 0.00 | 82 | 1011.1 |
| 20260509010304 | 64 | 63 | 0.9 | 1.7 | 0.00 | 0.00 | 0.00 | 83 | 1011.2 |
| 20260509005306 | 64 | 63 | 0.0 | 2.6 | 0.00 | 0.00 | 0.00 | 82 | 1011.4 |
| 20260509004804 | 64 | 63 | 0.9 | 2.6 | 0.00 | 0.00 | 0.00 | 82 | 1011.3 |
| 20260509004304 | 64 | 65 | 0.0 | 0.9 | 0.00 | 0.00 | 0.00 | 82 | 1011.4 |
| 20260509003804 | 64 | 65 | 0.0 | 1.7 | 0.00 | 0.00 | 0.00 | 82 | 1011.4 |
| 20260509002805 | 64 | 62 | 0.0 | 2.6 | 0.00 | 0.00 | 0.00 | 82 | 1011.7 |
| 20260509002306 | 64 | 63 | 0.0 | 0.9 | 0.00 | 0.00 | 0.00 | 82 | 1011.7 |
| 20260509001804 | 64 | 63 | 0.9 | 1.7 | 0.00 | 0.00 | 0.00 | 82 | 1011.7 |
| 20260509001304 | 64 | 62 | 0.9 | 2.6 | 0.00 | 0.00 | 0.00 | 82 | 1011.7 |
| 20260509000804 | 64 | 64 | 1.7 | 2.6 | 0.00 | 0.00 | 0.00 | 82 | 1011.8 |
| 20260509000304 | 64 | 63 | 0.9 | 2.6 | 0.00 | 0.00 | 0.00 | 82 | 1011.9 |
| 20260508235804 | 64 | 63 | 0.9 | 1.7 | 0.00 | 0.00 | 0.00 | 81 | 1012.0 |
| 20260508235306 | 64 | 63 | 0.9 | 1.7 | 0.00 | 0.00 | 0.00 | 81 | 1012.0 |
| 20260508234804 | 65 | 63 | 0.0 | 1.7 | 0.00 | 0.00 | 0.00 | 81 | 1012.0 |
| 20260508234304 | 65 | 64 | 0.9 | 2.6 | 0.00 | 0.00 | 0.00 | 81 | 1011.9 |
| 20260508233804 | 65 | 53 | 1.7 | 4.3 | 0.00 | 0.00 | 0.00 | 81 | 1011.9 |
| 20260508233305 | 65 | 63 | 0.9 | 2.6 | 0.00 | 0.00 | 0.00 | 81 | 1011.9 |
| 20260508232804 | 65 | 63 | 0.9 | 2.6 | 0.00 | 0.00 | 0.00 | 81 | 1012.0 |
| 20260508232307 | 65 | 62 | 0.9 | 1.7 | 0.00 | 0.00 | 0.00 | 81 | 1011.9 |
| 20260508231304 | 65 | 62 | 0.0 | 2.6 | 0.00 | 0.00 | 0.00 | 81 | 1012.2 |
| 20260508230804 | 65 | 63 | 0.9 | 2.6 | 0.00 | 0.00 | 0.00 | 81 | 1012.3 |
| 20260508230305 | 65 | 63 | 0.9 | 2.6 | 0.00 | 0.00 | 0.00 | 81 | 1012.3 |
| 20260508225804 | 65 | 63 | 0.0 | 1.7 | 0.00 | 0.00 | 0.00 | 81 | 1012.2 |
| 20260508225306 | 65 | 63 | 1.7 | 4.3 | 0.00 | 0.00 | 0.00 | 81 | 1012.3 |
| 20260508224804 | 65 | 69 | 0.9 | 2.6 | 0.00 | 0.00 | 0.00 | 81 | 1012.2 |
| 20260508224304 | 65 | 72 | 0.0 | 2.6 | 0.00 | 0.00 | 0.00 | 81 | 1012.2 |
| 20260508223304 | 65 | 69 | 0.9 | 2.6 | 0.00 | 0.00 | 0.00 | 81 | 1012.3 |
| 20260508222804 | 65 | 69 | 0.9 | 2.6 | 0.00 | 0.00 | 0.00 | 81 | 1012.2 |
| 20260508222306 | 65 | 69 | 1.7 | 2.6 | 0.00 | 0.00 | 0.00 | 81 | 1012.2 |
| 20260508221304 | 65 | 69 | 0.9 | 2.6 | 0.00 | 0.00 | 0.00 | 81 | 1012.3 |
| 20260508220819 | 65 | 69 | 0.9 | 2.6 | 0.00 | 0.00 | 0.00 | 81 | 1012.4 |
| 20260508220305 | 65 | 69 | 0.9 | 2.6 | 0.00 | 0.00 | 0.00 | 81 | 1012.4 |
| 20260508215803 | 65 | 69 | 0.9 | 4.3 | 0.00 | 0.00 | 0.00 | 81 | 1012.4 |
| 20260508215306 | 65 | 114 | 0.9 | 4.3 | 0.00 | 0.00 | 0.00 | 80 | 1012.5 |
| 20260508214304 | 65 | 130 | 0.9 | 2.6 | 0.00 | 0.00 | 0.00 | 80 | 1012.4 |
| 20260508213303 | 65 | 130 | 2.6 | 4.3 | 0.00 | 0.00 | 0.00 | 80 | 1012.5 |
| 20260508212804 | 65 | 126 | 1.7 | 4.3 | 0.00 | 0.00 | 0.00 | 80 | 1012.5 |
| 20260508212306 | 65 | 129 | 0.9 | 4.3 | 0.00 | 0.00 | 0.00 | 80 | 1012.4 |
| 20260508211304 | 65 | 126 | 0.9 | 4.3 | 0.00 | 0.00 | 0.00 | 80 | 1012.3 |
| 20260508210803 | 65 | 131 | 0.9 | 2.6 | 0.00 | 0.00 | 0.00 | 79 | 1012.3 |
| 20260508210304 | 65 | 116 | 1.7 | 4.3 | 0.00 | 0.00 | 0.00 | 79 | 1012.3 |
| 20260508205804 | 65 | 131 | 1.7 | 5.2 | 0.00 | 0.00 | 0.00 | 79 | 1012.3 |
| 20260508205306 | 65 | 130 | 1.7 | 2.6 | 0.00 | 0.00 | 0.00 | 79 | 1012.3 |
| 20260508204304 | 65 | 130 | 1.7 | 4.3 | 0.00 | 0.00 | 0.00 | 78 | 1012.3 |
| 20260508203304 | 66 | 130 | 2.6 | 5.2 | 0.00 | 0.00 | 0.00 | 77 | 1012.3 |
| 20260508202804 | 66 | 130 | 2.6 | 5.2 | 0.00 | 0.00 | 0.00 | 77 | 1012.1 |
| 20260508202306 | 66 | 127 | 1.7 | 5.2 | 0.00 | 0.00 | 0.00 | 77 | 1012.1 |
| 20260508201804 | 66 | 127 | 2.6 | 5.2 | 0.00 | 0.00 | 0.00 | 77 | 1012.0 |
| 20260508201304 | 66 | 126 | 4.3 | 7.8 | 0.00 | 0.00 | 0.00 | 77 | 1011.8 |
| 20260508200803 | 66 | 112 | 2.6 | 5.2 | 0.00 | 0.00 | 0.00 | 77 | 1011.8 |
| 20260508200303 | 66 | 128 | 1.7 | 4.3 | 0.00 | 0.00 | 0.00 | 77 | 1011.8 |
| 20260508195804 | 66 | 101 | 3.5 | 5.2 | 0.00 | 0.00 | 0.00 | 77 | 1011.8 |
| 20260508195306 | 66 | 121 | 4.3 | 6.1 | 0.00 | 0.00 | 0.00 | 77 | 1011.8 |
| 20260508194804 | 66 | 128 | 1.7 | 6.1 | 0.00 | 0.00 | 0.00 | 77 | 1011.7 |
| 20260508194304 | 66 | 142 | 4.3 | 7.0 | 0.00 | 0.01 | 0.00 | 76 | 1011.7 |
| 20260508193803 | 66 | 102 | 4.3 | 7.0 | 0.00 | 0.01 | 0.00 | 76 | 1011.6 |
| 20260508193304 | 66 | 135 | 4.3 | 6.1 | 0.00 | 0.01 | 0.00 | 76 | 1011.6 |
| 20260508192306 | 67 | 134 | 4.3 | 7.0 | 0.00 | 0.01 | 0.00 | 76 | 1011.6 |
| 20260508191804 | 67 | 141 | 4.3 | 6.1 | 0.00 | 0.01 | 0.00 | 75 | 1011.6 |
| 20260508191305 | 67 | 106 | 5.2 | 7.0 | 0.00 | 0.02 | 0.00 | 75 | 1011.5 |
| 20260508190803 | 67 | 146 | 4.3 | 7.0 | 0.00 | 0.02 | 0.00 | 75 | 1011.4 |
| 20260508190304 | 67 | 141 | 5.2 | 6.1 | 0.00 | 0.02 | 0.00 | 75 | 1011.3 |
| 20260508185306 | 67 | 103 | 5.2 | 8.7 | 0.00 | 0.02 | 0.00 | 75 | 1011.3 |
| 20260508184804 | 68 | 89 | 4.3 | 7.8 | 0.00 | 0.02 | 0.00 | 75 | 1011.2 |
| 20260508184304 | 68 | 128 | 5.2 | 7.8 | 0.00 | 0.02 | 0.00 | 74 | 1011.2 |
| 20260508183803 | 68 | 131 | 4.3 | 7.0 | 0.00 | 0.02 | 0.00 | 74 | 1011.1 |
| 20260508182803 | 68 | 122 | 5.2 | 7.8 | 0.00 | 0.02 | 0.00 | 73 | 1011.0 |
| 20260508182306 | 68 | 131 | 4.3 | 7.0 | 0.00 | 0.02 | 0.00 | 72 | 1010.9 |
| 20260508181804 | 68 | 125 | 4.3 | 8.7 | 0.00 | 0.02 | 0.00 | 72 | 1010.9 |
| 20260508181304 | 69 | 122 | 2.6 | 6.1 | 0.00 | 0.02 | 0.00 | 71 | 1010.7 |
| 20260508180804 | 69 | 141 | 4.3 | 7.8 | 0.00 | 0.02 | 0.00 | 70 | 1010.7 |
| 20260508180304 | 69 | 77 | 5.2 | 7.8 | 0.00 | 0.02 | 0.00 | 69 | 1010.7 |
| 20260508175803 | 69 | 99 | 4.3 | 7.8 | 0.00 | 0.02 | 0.00 | 68 | 1010.8 |
| 20260508175306 | 69 | 85 | 6.1 | 10.4 | 0.00 | 0.02 | 0.00 | 67 | 1010.8 |
| 20260508174804 | 69 | 93 | 5.2 | 10.4 | 0.00 | 0.02 | 0.00 | 65 | 1010.9 |
| 20260508174304 | 70 | 121 | 6.1 | 7.8 | 0.00 | 0.02 | 0.00 | 66 | 1010.9 |
| 20260508173805 | 70 | 117 | 4.3 | 7.8 | 0.00 | 0.02 | 0.00 | 65 | 1010.9 |
| 20260508173304 | 70 | 116 | 4.3 | 7.0 | 0.00 | 0.02 | 0.00 | 65 | 1010.8 |
| 20260508172307 | 70 | 102 | 4.3 | 7.0 | 0.00 | 0.02 | 0.00 | 66 | 1010.8 |
| 20260508171805 | 70 | 72 | 2.6 | 7.8 | 0.00 | 0.02 | 0.00 | 65 | 1010.8 |
| 20260508171304 | 71 | 67 | 5.2 | 7.8 | 0.00 | 0.02 | 0.00 | 64 | 1010.7 |
| 20260508165804 | 72 | 89 | 4.3 | 7.0 | 0.00 | 0.02 | 0.00 | 61 | 1010.8 |
| 20260508165306 | 72 | 96 | 5.2 | 10.4 | 0.00 | 0.02 | 0.00 | 61 | 1010.8 |
| 20260508164805 | 72 | 87 | 4.3 | 7.0 | 0.00 | 0.02 | 0.00 | 63 | 1010.8 |
| 20260508163805 | 71 | 58 | 3.5 | 6.1 | 0.00 | 0.02 | 0.00 | 65 | 1010.7 |
| 20260508163305 | 71 | 44 | 5.2 | 10.4 | 0.00 | 0.02 | 0.00 | 63 | 1010.8 |
| 20260508162307 | 72 | 112 | 4.3 | 7.0 | 0.00 | 0.02 | 0.00 | 63 | 1010.9 |
| 20260508161805 | 72 | 103 | 5.2 | 7.0 | 0.00 | 0.02 | 0.00 | 63 | 1010.8 |
| 20260508161304 | 72 | 106 | 5.2 | 10.4 | 0.00 | 0.02 | 0.00 | 63 | 1010.7 |
| 20260508160804 | 72 | 58 | 4.3 | 8.7 | 0.00 | 0.02 | 0.00 | 63 | 1010.7 |
| 20260508160305 | 72 | 62 | 3.5 | 7.0 | 0.00 | 0.02 | 0.00 | 62 | 1010.7 |
| 20260508155804 | 72 | 93 | 1.7 | 5.2 | 0.00 | 0.02 | 0.00 | 64 | 1010.6 |
| 20260508155306 | 72 | 56 | 3.5 | 8.7 | 0.00 | 0.02 | 0.00 | 63 | 1010.7 |
| 20260508154805 | 72 | 95 | 2.6 | 5.2 | 0.00 | 0.02 | 0.00 | 65 | 1010.6 |
| 20260508154305 | 71 | 95 | 3.5 | 8.7 | 0.00 | 0.02 | 0.00 | 66 | 1010.5 |
| 20260508153805 | 71 | 80 | 4.3 | 11.3 | 0.00 | 0.02 | 0.00 | 68 | 1010.3 |
| 20260508153304 | 71 | 19 | 3.5 | 7.8 | 0.00 | 0.02 | 0.00 | 67 | 1010.4 |
| 20260508152306 | 71 | 61 | 3.5 | 7.0 | 0.00 | 0.02 | 0.00 | 67 | 1010.4 |
| 20260508151805 | 71 | 61 | 2.6 | 7.0 | 0.00 | 0.02 | 0.00 | 68 | 1010.5 |
| 20260508151304 | 72 | 73 | 5.2 | 7.8 | 0.00 | 0.02 | 0.00 | 67 | 1010.6 |
| 20260508150304 | 72 | 82 | 3.5 | 7.8 | 0.00 | 0.02 | 0.00 | 65 | 1010.6 |
| 20260508145804 | 72 | 66 | 4.3 | 8.7 | 0.00 | 0.02 | 0.00 | 63 | 1010.6 |
| 20260508145306 | 72 | 63 | 5.2 | 11.3 | 0.00 | 0.02 | 0.00 | 61 | 1010.4 |
| 20260508143304 | 71 | 84 | 2.6 | 7.8 | 0.00 | 0.02 | 0.00 | 63 | 1011.1 |
| 20260508142804 | 71 | 77 | 1.7 | 7.0 | 0.00 | 0.02 | 0.00 | 63 | 1011.2 |
| 20260508142306 | 71 | 69 | 4.3 | 7.0 | 0.00 | 0.02 | 0.00 | 62 | 1011.2 |
| 20260508141805 | 71 | 60 | 3.5 | 6.1 | 0.00 | 0.02 | 0.00 | 63 | 1011.2 |
| 20260508141304 | 71 | 63 | 4.3 | 7.0 | 0.00 | 0.02 | 0.00 | 62 | 1011.3 |
| 20260508140805 | 72 | 41 | 3.5 | 10.4 | 0.00 | 0.02 | 0.00 | 62 | 1011.3 |
| 20260508140304 | 72 | 27 | 2.6 | 7.0 | 0.00 | 0.02 | 0.00 | 62 | 1011.3 |
| 20260508135804 | 73 | 51 | 4.3 | 7.0 | 0.00 | 0.02 | 0.00 | 61 | 1011.4 |
| 20260508135306 | 72 | 68 | 1.7 | 6.1 | 0.00 | 0.02 | 0.00 | 63 | 1011.5 |
| 20260508134804 | 72 | 52 | 4.3 | 7.8 | 0.00 | 0.02 | 0.00 | 62 | 1011.5 |
| 20260508134305 | 72 | 354 | 2.6 | 5.2 | 0.00 | 0.02 | 0.00 | 64 | 1011.6 |
| 20260508133805 | 71 | 82 | 1.7 | 6.1 | 0.00 | 0.02 | 0.00 | 65 | 1011.6 |
| 20260508133304 | 70 | 79 | 5.2 | 8.7 | 0.00 | 0.02 | 0.00 | 66 | 1011.7 |
| 20260508132804 | 71 | 66 | 2.6 | 4.3 | 0.00 | 0.02 | 0.00 | 65 | 1011.8 |
| 20260508132306 | 71 | 55 | 2.6 | 7.8 | 0.00 | 0.02 | 0.00 | 66 | 1012.0 |
| 20260508131804 | 71 | 18 | 3.5 | 6.1 | 0.00 | 0.02 | 0.00 | 66 | 1012.0 |
| 20260508131305 | 71 | 9 | 2.6 | 7.0 | 0.00 | 0.02 | 0.00 | 65 | 1012.0 |
| 20260508130805 | 71 | 86 | 2.6 | 6.1 | 0.00 | 0.02 | 0.00 | 67 | 1012.0 |
| 20260508130305 | 70 | 34 | 3.5 | 6.1 | 0.00 | 0.02 | 0.00 | 67 | 1012.1 |
| 20260508125804 | 69 | 92 | 1.7 | 5.2 | 0.00 | 0.02 | 0.00 | 68 | 1012.1 |
| 20260508124805 | 69 | 31 | 3.5 | 7.8 | 0.00 | 0.02 | 0.00 | 68 | 1011.9 |
| 20260508124304 | 69 | 33 | 4.3 | 7.0 | 0.00 | 0.02 | 0.00 | 68 | 1012.0 |
| 20260508123305 | 69 | 342 | 1.7 | 5.2 | 0.00 | 0.02 | 0.00 | 69 | 1012.1 |
| 20260508122804 | 69 | 334 | 3.5 | 5.2 | 0.00 | 0.02 | 0.00 | 68 | 1012.3 |
| 20260508122307 | 69 | 2 | 2.6 | 6.1 | 0.00 | 0.02 | 0.00 | 67 | 1012.3 |
| 20260508121804 | 70 | 347 | 1.7 | 7.0 | 0.00 | 0.02 | 0.00 | 67 | 1012.4 |
| 20260508121305 | 70 | 5 | 2.6 | 5.2 | 0.00 | 0.02 | 0.00 | 67 | 1012.4 |
| 20260508120304 | 69 | 17 | 2.6 | 5.2 | 0.00 | 0.02 | 0.00 | 69 | 1012.4 |
| 20260508115805 | 69 | 14 | 1.7 | 2.6 | 0.00 | 0.02 | 0.00 | 69 | 1012.4 |
| 20260508115306 | 68 | 5 | 3.5 | 5.2 | 0.00 | 0.02 | 0.00 | 71 | 1012.5 |
| 20260508114805 | 67 | 261 | 1.7 | 4.3 | 0.00 | 0.02 | 0.00 | 73 | 1012.5 |
| 20260508114304 | 66 | 258 | 1.7 | 4.3 | 0.00 | 0.02 | 0.00 | 74 | 1012.6 |
| 20260508113805 | 66 | 251 | 1.7 | 2.6 | 0.00 | 0.02 | 0.00 | 73 | 1012.7 |
| 20260508113305 | 66 | 251 | 0.9 | 2.6 | 0.00 | 0.02 | 0.00 | 73 | 1012.8 |
| 20260508112804 | 66 | 251 | 0.9 | 2.6 | 0.00 | 0.02 | 0.00 | 73 | 1012.7 |
| 20260508112307 | 66 | 285 | 2.6 | 5.2 | 0.00 | 0.02 | 0.00 | 73 | 1012.7 |
| 20260508111804 | 66 | 349 | 1.7 | 2.6 | 0.00 | 0.02 | 0.00 | 73 | 1012.6 |
| 20260508111305 | 66 | 348 | 1.7 | 2.6 | 0.00 | 0.02 | 0.00 | 73 | 1012.6 |
| 20260508110805 | 66 | 351 | 1.7 | 4.3 | 0.00 | 0.02 | 0.00 | 73 | 1012.5 |
| 20260508110304 | 66 | 352 | 2.6 | 6.1 | 0.00 | 0.02 | 0.00 | 73 | 1012.2 |
| 20260508105804 | 65 | 336 | 2.6 | 4.3 | 0.00 | 0.02 | 0.00 | 74 | 1012.3 |
| 20260508105306 | 65 | 299 | 1.7 | 4.3 | 0.00 | 0.02 | 0.00 | 74 | 1012.3 |
| 20260508104805 | 65 | 46 | 1.7 | 2.6 | 0.00 | 0.02 | 0.00 | 74 | 1012.3 |
| 20260508104305 | 65 | 47 | 0.9 | 2.6 | 0.00 | 0.02 | 0.00 | 74 | 1012.4 |
| 20260508103304 | 65 | 46 | 1.7 | 2.6 | 0.00 | 0.02 | 0.00 | 74 | 1012.7 |
| 20260508102805 | 65 | 46 | 0.9 | 4.3 | 0.00 | 0.02 | 0.00 | 74 | 1012.7 |
| 20260508102306 | 65 | 42 | 2.6 | 4.3 | 0.00 | 0.02 | 0.00 | 74 | 1012.7 |
| 20260508101305 | 65 | 47 | 2.6 | 2.6 | 0.00 | 0.03 | 0.00 | 74 | 1012.7 |
| 20260508100804 | 65 | 48 | 2.6 | 4.3 | 0.00 | 0.03 | 0.00 | 74 | 1012.8 |
| 20260508100304 | 65 | 47 | 0.0 | 2.6 | 0.00 | 0.03 | 0.00 | 74 | 1013.0 |
| 20260508095804 | 65 | 47 | 0.9 | 1.7 | 0.00 | 0.14 | 0.00 | 73 | 1013.0 |
| 20260508095306 | 65 | 48 | 0.0 | 2.6 | 0.00 | 0.15 | 0.00 | 73 | 1012.9 |
| 20260508094804 | 65 | 43 | 1.7 | 2.6 | 0.00 | 0.15 | 0.00 | 73 | 1012.7 |
| 20260508093805 | 65 | 46 | 1.7 | 4.3 | 0.00 | 0.15 | 0.00 | 73 | 1012.4 |
| 20260508093304 | 65 | 47 | 3.5 | 5.2 | 0.00 | 0.15 | 0.00 | 73 | 1012.3 |
| 20260508092804 | 65 | 242 | 1.7 | 2.6 | 0.00 | 0.15 | 0.00 | 73 | 1012.4 |
| 20260508091805 | 65 | 236 | 0.9 | 2.6 | 0.00 | 0.15 | 0.00 | 72 | 1012.4 |
| 20260508091304 | 65 | 236 | 1.7 | 2.6 | 0.00 | 0.15 | 0.00 | 72 | 1012.4 |
| 20260508090304 | 65 | 236 | 1.7 | 4.3 | 0.00 | 0.15 | 0.00 | 72 | 1012.5 |
| 20260508085804 | 65 | 259 | 1.7 | 5.2 | 0.00 | 0.15 | 0.00 | 73 | 1012.7 |
| 20260508085307 | 65 | 248 | 2.6 | 5.2 | 0.00 | 0.15 | 0.00 | 75 | 1012.7 |
| 20260508084805 | 64 | 266 | 2.6 | 5.2 | 0.00 | 0.15 | 0.00 | 76 | 1012.6 |
| 20260508084304 | 64 | 244 | 1.7 | 4.3 | 0.00 | 0.15 | 0.00 | 77 | 1012.6 |
| 20260508083805 | 64 | 246 | 1.7 | 4.3 | 0.00 | 0.15 | 0.00 | 77 | 1012.5 |
| 20260508083304 | 64 | 241 | 1.7 | 4.3 | 0.00 | 0.15 | 0.00 | 77 | 1012.4 |
| 20260508082805 | 64 | 233 | 2.6 | 5.2 | 0.00 | 0.15 | 0.00 | 77 | 1012.2 |
| 20260508082306 | 63 | 251 | 1.7 | 6.1 | 0.00 | 0.15 | 0.00 | 79 | 1012.2 |
| 20260508081804 | 63 | 285 | 2.6 | 6.1 | 0.00 | 0.15 | 0.00 | 80 | 1012.1 |
| 20260508081304 | 63 | 235 | 1.7 | 4.3 | 0.00 | 0.15 | 0.00 | 81 | 1012.1 |
| 20260508080804 | 62 | 246 | 1.7 | 4.3 | 0.00 | 0.15 | 0.00 | 81 | 1012.2 |
| 20260508080304 | 62 | 259 | 1.7 | 5.2 | 0.00 | 0.15 | 0.00 | 80 | 1012.1 |
| 20260508075804 | 62 | 288 | 1.7 | 2.6 | 0.00 | 0.15 | 0.00 | 80 | 1012.2 |
| 20260508075308 | 62 | 285 | 2.6 | 4.3 | 0.00 | 0.15 | 0.00 | 80 | 1012.1 |
| 20260508074804 | 62 | 329 | 2.6 | 4.3 | 0.00 | 0.15 | 0.00 | 80 | 1012.1 |
| 20260508073804 | 62 | 277 | 4.3 | 5.2 | 0.00 | 0.15 | 0.00 | 81 | 1012.0 |
| 20260508072804 | 61 | 241 | 1.7 | 4.3 | 0.00 | 0.15 | 0.00 | 82 | 1012.2 |
| 20260508072307 | 60 | 265 | 2.6 | 4.3 | 0.00 | 0.15 | 0.00 | 82 | 1012.2 |